Location: Clyde
(45.1830°S, 169.3170°E)
Time: 12:14:06
(UTC+13:00)

Cosmos 1763 Rocket - Pass Details

Date: 24 January 2019
Orbit: 733 x 780 km, 74.0° (Epoch: 18 February)

Event Time Altitude Azimuth Distance (km) Brightness Sun altitude
Rises 22:21:27 0° 203° (SSW) 3,274 8.0 -9.4°
Reaches altitude 10° 22:23:52 10° 204° (SSW) 2,333 7.2 -9.8°
Maximum altitude 22:29:10 76° 288° (WNW) 793 3.7 -10.5°
Drops below altitude 10° 22:34:18 10° 13° (NNE) 2,271 5.5 -11.1°
Enters shadow 22:34:29 - 13° (NNE) 2,340 5.5 -11.2°
